Time,TemperatureF,DewpointF,PressureIn,WindDirection,WindDirectionDegrees,WindSpeedMPH,WindSpeedGustMPH,Humidity,HourlyPrecipIn,Conditions,Clouds,dailyrainin,SoftwareType,DateUTC
2013-03-02 00:00:00,35.8,29.6,30.50,NNE,22,0.0,0.0,78,0.00,CLR,,0.00,WeatherDisplay:10.37,2013-03-02 00:00:00,
2013-03-02 00:15:00,35.6,29.7,30.50,NNE,17,0.0,2.0,79,0.00,CLR,,0.00,WeatherDisplay:10.37,2013-03-02 00:15:00,
2013-03-02 00:30:00,36.1,30.9,30.50,North,0,0.0,0.0,81,0.00,CLR,,0.00,WeatherDisplay:10.37,2013-03-02 00:30:00,
2013-03-02 00:45:00,36.7,31.7,30.50,North,0,0.0,0.0,82,0.00,CLR,,0.00,WeatherDisplay:10.37,2013-03-02 00:45:00,
2013-03-02 01:00:00,36.9,32.2,30.50,East,90,0.0,0.0,83,0.00,CLR,,0.00,WeatherDisplay:10.37,2013-03-02 01:00:00,
2013-03-02 01:15:00,37.0,32.4,30.50,ENE,59,0.0,0.0,83,0.00,CLR,,0.00,WeatherDisplay:10.37,2013-03-02 01:15:00,
2013-03-02 01:30:00,37.4,33.0,30.48,North,359,0.0,0.0,84,0.00,CLR,,0.00,WeatherDisplay:10.37,2013-03-02 01:30:00,
2013-03-02 01:45:00,37.6,33.2,30.48,East,90,0.0,0.0,84,0.00,CLR,,0.00,WeatherDisplay:10.37,2013-03-02 01:45:00,
2013-03-02 02:00:00,37.8,33.4,30.48,NE,42,0.0,0.0,84,0.00,CLR,,0.00,WeatherDisplay:10.37,2013-03-02 02:00:00,
2013-03-02 02:15:00,37.8,33.7,30.48,NE,49,0.0,0.0,85,0.00,CLR,,0.00,WeatherDisplay:10.37,2013-03-02 02:15:00,
2013-03-02 02:30:00,38.1,34.0,30.44,SSW,195,0.0,0.0,85,0.00,CLR,,0.00,WeatherDisplay:10.37,2013-03-02 02:30:00,
2013-03-02 02:45:00,38.3,34.5,30.44,WSW,247,0.0,0.0,86,0.00,CLR,,0.00,WeatherDisplay:10.37,2013-03-02 02:45:00,
2013-03-02 03:00:00,38.5,34.7,30.44,West,281,0.0,0.0,86,0.00,CLR,,0.00,WeatherDisplay:10.37,2013-03-02 03:00:00,
2013-03-02 03:15:00,38.7,34.9,30.44,West,276,0.0,0.0,86,0.00,CLR,,0.00,WeatherDisplay:10.37,2013-03-02 03:15:00,
2013-03-02 03:30:00,39.0,35.5,30.44,NW,316,0.0,0.0,87,0.00,CLR,,0.00,WeatherDisplay:10.37,2013-03-02 03:30:00,
2013-03-02 03:45:00,39.2,35.7,30.44,WNW,299,0.0,0.0,87,0.00,CLR,,0.00,WeatherDisplay:10.37,2013-03-02 03:45:00,
2013-03-02 04:00:00,39.4,35.8,30.44,WNW,292,0.0,0.0,87,0.00,CLR,,0.00,WeatherDisplay:10.37,2013-03-02 04:00:00,
2013-03-02 04:15:00,39.4,35.8,30.44,WSW,251,1.0,1.0,87,0.00,CLR,,0.00,WeatherDisplay:10.37,2013-03-02 04:15:00,
2013-03-02 04:30:00,39.6,36.0,30.44,West,262,0.0,0.0,87,0.00,CLR,,0.00,WeatherDisplay:10.37,2013-03-02 04:30:00,
2013-03-02 04:45:00,39.6,36.3,30.44,West,274,0.0,0.0,88,0.00,CLR,,0.00,WeatherDisplay:10.37,2013-03-02 04:45:00,
2013-03-02 05:00:00,39.6,36.3,30.42,WNW,292,0.0,0.0,88,0.00,CLR,,0.00,WeatherDisplay:10.37,2013-03-02 05:00:00,
2013-03-02 05:15:00,39.7,36.5,30.42,ESE,106,0.0,0.0,88,0.00,CLR,,0.00,WeatherDisplay:10.37,2013-03-02 05:15:00,
2013-03-02 05:30:00,39.7,36.5,30.42,ESE,115,0.0,0.0,88,0.00,CLR,,0.00,WeatherDisplay:10.37,2013-03-02 05:30:00,
2013-03-02 05:45:00,39.7,36.5,30.42,WNW,298,0.0,0.0,88,0.00,CLR,,0.00,WeatherDisplay:10.37,2013-03-02 05:45:00,
2013-03-02 06:00:00,39.7,36.5,30.42,NE,45,0.0,0.0,88,0.00,CLR,,0.00,WeatherDisplay:10.37,2013-03-02 06:00:00,
2013-03-02 06:15:00,39.6,36.6,30.42,West,275,0.0,0.0,89,0.00,CLR,,0.00,WeatherDisplay:10.37,2013-03-02 06:15:00,
2013-03-02 06:30:00,39.7,37.0,30.42,West,267,0.0,0.0,90,0.00,CLR,,0.00,WeatherDisplay:10.37,2013-03-02 06:30:00,
2013-03-02 06:45:00,39.7,37.0,30.42,ENE,58,0.0,0.0,90,0.00,CLR,,0.00,WeatherDisplay:10.37,2013-03-02 06:45:00,
2013-03-02 07:00:00,39.6,36.9,30.42,East,90,0.0,0.0,90,0.00,CLR,,0.00,WeatherDisplay:10.37,2013-03-02 07:00:00,
2013-03-02 07:15:00,39.6,36.9,30.42,ENE,63,0.0,0.0,90,0.00,CLR,,0.00,WeatherDisplay:10.37,2013-03-02 07:15:00,
2013-03-02 07:30:00,39.4,36.7,30.42,SE,137,0.0,0.0,90,0.00,CLR,,0.00,WeatherDisplay:10.37,2013-03-02 07:30:00,
2013-03-02 07:45:00,39.4,37.0,30.42,West,273,0.0,0.0,91,0.00,CLR,,0.00,WeatherDisplay:10.37,2013-03-02 07:45:00,
2013-03-02 08:00:00,39.7,37.3,30.42,South,181,0.0,0.0,91,0.00,CLR,,0.00,WeatherDisplay:10.37,2013-03-02 08:00:00,
2013-03-02 08:15:00,40.1,38.0,30.42,East,90,0.0,0.0,92,0.00,CLR,,0.00,WeatherDisplay:10.37,2013-03-02 08:15:00,
2013-03-02 08:30:00,40.5,38.3,30.42,East,90,0.0,0.0,92,0.00,CLR,,0.00,WeatherDisplay:10.37,2013-03-02 08:30:00,
2013-03-02 08:45:00,41.2,39.0,30.42,South,184,0.0,0.0,92,0.00,CLR,,0.00,WeatherDisplay:10.37,2013-03-02 08:45:00,
2013-03-02 09:00:00,41.9,40.0,30.42,NNE,13,0.0,0.0,93,0.00,CLR,,0.00,WeatherDisplay:10.37,2013-03-02 09:00:00,
2013-03-02 09:15:00,42.7,40.8,30.42,West,267,0.0,3.0,93,0.00,CLR,,0.00,WeatherDisplay:10.37,2013-03-02 09:15:00,
2013-03-02 09:30:00,44.1,42.2,30.42,West,265,5.0,5.0,93,0.00,CLR,,0.00,WeatherDisplay:10.37,2013-03-02 09:30:00,
2013-03-02 09:45:00,44.6,42.4,30.42,WNW,285,2.0,6.0,92,0.00,CLR,,0.00,WeatherDisplay:10.37,2013-03-02 09:45:00,
2013-03-02 10:00:00,45.0,42.5,30.39,WNW,288,5.0,5.0,91,0.00,CLR,,0.00,WeatherDisplay:10.37,2013-03-02 10:00:00,
2013-03-02 10:15:00,45.5,42.4,30.39,WNW,292,6.0,9.0,89,0.00,CLR,,0.00,WeatherDisplay:10.37,2013-03-02 10:15:00,
2013-03-02 10:30:00,46.2,42.9,30.39,WSW,244,2.0,6.0,88,0.00,CLR,,0.00,WeatherDisplay:10.37,2013-03-02 10:30:00,
2013-03-02 10:45:00,46.8,42.8,30.39,WNW,300,2.0,4.0,86,0.00,CLR,,0.00,WeatherDisplay:10.37,2013-03-02 10:45:00,
2013-03-02 11:00:00,47.2,43.0,30.39,WNW,290,2.0,6.0,85,0.00,CLR,,0.00,WeatherDisplay:10.37,2013-03-02 11:00:00,
2013-03-02 11:15:00,48.8,44.2,30.39,WNW,297,3.0,7.0,84,0.00,CLR,,0.00,WeatherDisplay:10.37,2013-03-02 11:15:00,
2013-03-02 11:30:00,50.2,44.9,30.39,NW,317,6.0,6.0,82,0.00,CLR,,0.00,WeatherDisplay:10.37,2013-03-02 11:30:00,
2013-03-02 11:45:00,50.7,43.8,30.39,NNW,343,6.0,8.0,77,0.00,CLR,,0.00,WeatherDisplay:10.37,2013-03-02 11:45:00,
2013-03-02 12:00:00,51.1,43.1,30.39,North,0,3.0,6.0,74,0.00,CLR,,0.00,WeatherDisplay:10.37,2013-03-02 12:00:00,
2013-03-02 12:15:00,51.4,42.7,30.39,WNW,292,6.0,10.0,72,0.00,CLR,,0.00,WeatherDisplay:10.37,2013-03-02 12:15:00,
2013-03-02 12:30:00,51.6,42.2,30.39,WNW,299,6.0,10.0,70,0.00,CLR,,0.00,WeatherDisplay:10.37,2013-03-02 12:30:00,
2013-03-02 12:45:00,51.6,41.8,30.39,WNW,292,8.0,8.0,69,0.00,CLR,,0.00,WeatherDisplay:10.37,2013-03-02 12:45:00,
2013-03-02 13:00:00,51.6,41.4,30.39,WSW,256,5.0,8.0,68,0.00,CLR,,0.00,WeatherDisplay:10.37,2013-03-02 13:00:00,
2013-03-02 13:15:00,51.6,41.4,30.39,North,352,8.0,12.0,68,0.00,CLR,,0.00,WeatherDisplay:10.37,2013-03-02 13:15:00,
2013-03-02 13:30:00,51.4,40.8,30.36,WNW,292,3.0,8.0,67,0.00,CLR,,0.00,WeatherDisplay:10.37,2013-03-02 13:30:00,
2013-03-02 13:45:00,51.8,40.8,30.36,NW,314,6.0,9.0,66,0.00,CLR,,0.00,WeatherDisplay:10.37,2013-03-02 13:45:00,
2013-03-02 14:00:00,51.8,40.4,30.36,NNW,345,6.0,8.0,65,0.00,CLR,,0.00,WeatherDisplay:10.37,2013-03-02 14:00:00,
2013-03-02 14:15:00,51.3,40.3,30.36,NW,322,2.0,6.0,66,0.00,CLR,,0.00,WeatherDisplay:10.37,2013-03-02 14:15:00,
2013-03-02 14:30:00,50.9,40.7,30.36,WNW,285,2.0,5.0,68,0.00,CLR,,0.00,WeatherDisplay:10.37,2013-03-02 14:30:00,
2013-03-02 14:45:00,50.7,40.9,30.36,West,274,3.0,7.0,69,0.00,CLR,,0.00,WeatherDisplay:10.37,2013-03-02 14:45:00,
2013-03-02 15:00:00,50.5,41.1,30.36,WNW,282,0.0,4.0,70,0.00,CLR,,0.00,WeatherDisplay:10.37,2013-03-02 15:00:00,
2013-03-02 15:15:00,50.5,41.1,30.36,SSW,213,2.0,4.0,70,0.00,CLR,,0.00,WeatherDisplay:10.37,2013-03-02 15:15:00,
2013-03-02 15:30:00,50.5,41.1,30.36,WSW,254,0.0,5.0,70,0.00,CLR,,0.00,WeatherDisplay:10.37,2013-03-02 15:30:00,
2013-03-02 15:45:00,50.5,40.7,30.36,WNW,296,3.0,7.0,69,0.00,CLR,,0.00,WeatherDisplay:10.37,2013-03-02 15:45:00,
2013-03-02 16:00:00,50.5,40.7,30.36,NW,307,3.0,4.0,69,0.00,CLR,,0.00,WeatherDisplay:10.37,2013-03-02 16:00:00,
2013-03-02 16:15:00,50.4,40.6,30.36,NW,322,3.0,6.0,69,0.00,CLR,,0.00,WeatherDisplay:10.37,2013-03-02 16:15:00,
2013-03-02 16:30:00,50.2,40.0,30.36,NNW,328,3.0,5.0,68,0.00,CLR,,0.00,WeatherDisplay:10.37,2013-03-02 16:30:00,
2013-03-02 16:45:00,50.0,39.8,30.33,NNW,347,1.0,4.0,68,0.00,CLR,,0.00,WeatherDisplay:10.37,2013-03-02 16:45:00,
2013-03-02 17:00:00,49.6,39.9,30.33,NW,316,1.0,6.0,69,0.00,CLR,,0.00,WeatherDisplay:10.37,2013-03-02 17:00:00,
2013-03-02 17:15:00,49.5,39.7,30.33,WNW,294,1.0,6.0,69,0.00,CLR,,0.00,WeatherDisplay:10.37,2013-03-02 17:15:00,
2013-03-02 17:30:00,49.3,39.9,30.33,WNW,292,3.0,5.0,70,0.00,CLR,,0.00,WeatherDisplay:10.37,2013-03-02 17:30:00,
2013-03-02 17:45:00,48.9,39.6,30.33,NW,305,3.0,5.0,70,0.00,CLR,,0.00,WeatherDisplay:10.37,2013-03-02 17:45:00,
2013-03-02 18:00:00,48.7,39.4,30.33,NW,322,5.0,6.0,70,0.00,CLR,,0.00,WeatherDisplay:10.37,2013-03-02 18:00:00,
2013-03-02 18:15:00,48.6,39.6,30.36,NNW,332,2.0,5.0,71,0.00,CLR,,0.00,WeatherDisplay:10.37,2013-03-02 18:15:00,
2013-03-02 18:30:00,48.4,39.4,30.36,NW,320,2.0,6.0,71,0.00,CLR,,0.00,WeatherDisplay:10.37,2013-03-02 18:30:00,
2013-03-02 18:45:00,48.2,39.6,30.36,North,355,3.0,5.0,72,0.00,CLR,,0.00,WeatherDisplay:10.37,2013-03-02 18:45:00,
2013-03-02 19:00:00,48.0,39.8,30.36,NNW,344,2.0,4.0,73,0.00,CLR,,0.00,WeatherDisplay:10.37,2013-03-02 19:00:00,
2013-03-02 19:15:00,47.9,39.7,30.36,NW,316,2.0,4.0,73,0.00,CLR,,0.00,WeatherDisplay:10.37,2013-03-02 19:15:00,
2013-03-02 19:30:00,47.8,40.0,30.36,NNW,344,3.0,4.0,74,0.00,CLR,,0.00,WeatherDisplay:10.37,2013-03-02 19:30:00,
2013-03-02 19:45:00,47.8,39.9,30.36,NW,319,3.0,5.0,74,0.00,CLR,,0.00,WeatherDisplay:10.37,2013-03-02 19:45:00,
2013-03-02 20:00:00,47.7,39.8,30.36,North,354,0.0,3.0,74,0.00,CLR,,0.00,WeatherDisplay:10.37,2013-03-02 20:00:00,
2013-03-02 20:15:00,47.7,39.8,30.36,WNW,290,0.0,1.0,74,0.00,CLR,,0.00,WeatherDisplay:10.37,2013-03-02 20:15:00,
2013-03-02 20:30:00,47.5,39.6,30.36,SE,135,0.0,0.0,74,0.00,CLR,,0.00,WeatherDisplay:10.37,2013-03-02 20:30:00,
2013-03-02 20:45:00,47.3,39.8,30.36,SE,126,0.0,0.0,75,0.00,CLR,,0.00,WeatherDisplay:10.37,2013-03-02 20:45:00,
2013-03-02 21:00:00,47.3,39.8,30.36,NE,56,0.0,0.0,75,0.00,CLR,,0.00,WeatherDisplay:10.37,2013-03-02 21:00:00,
2013-03-02 21:15:00,47.1,39.6,30.36,NE,45,0.0,0.0,75,0.00,CLR,,0.00,WeatherDisplay:10.37,2013-03-02 21:15:00,
2013-03-02 21:30:00,46.9,39.8,30.36,NE,45,0.0,0.0,76,0.00,CLR,,0.00,WeatherDisplay:10.37,2013-03-02 21:30:00,
2013-03-02 21:45:00,46.8,39.9,30.36,NE,45,0.0,0.0,77,0.00,CLR,,0.00,WeatherDisplay:10.37,2013-03-02 21:45:00,
2013-03-02 22:00:00,46.6,39.8,30.36,NE,45,0.0,0.0,77,0.00,CLR,,0.00,WeatherDisplay:10.37,2013-03-02 22:00:00,
2013-03-02 22:15:00,46.4,39.9,30.36,NE,45,0.0,0.0,78,0.00,CLR,,0.00,WeatherDisplay:10.37,2013-03-02 22:15:00,
2013-03-02 22:30:00,46.2,39.7,30.36,NE,45,0.0,0.0,78,0.00,CLR,,0.00,WeatherDisplay:10.37,2013-03-02 22:30:00,
2013-03-02 22:45:00,46.0,39.9,30.36,West,281,0.0,0.0,79,0.00,CLR,,0.00,WeatherDisplay:10.37,2013-03-02 22:45:00,
2013-03-02 23:00:00,45.9,40.0,30.36,NE,45,0.0,0.0,80,0.00,CLR,,0.00,WeatherDisplay:10.37,2013-03-02 23:00:00,
2013-03-02 23:15:00,45.7,39.9,30.36,NE,45,0.0,0.0,80,0.00,CLR,,0.00,WeatherDisplay:10.37,2013-03-02 23:15:00,
2013-03-02 23:30:00,45.5,40.0,30.33,NE,45,0.0,0.0,81,0.00,CLR,,0.00,WeatherDisplay:10.37,2013-03-02 23:30:00,
2013-03-02 23:45:00,45.3,39.5,30.33,NE,45,0.0,0.0,80,0.00,CLR,,0.00,WeatherDisplay:10.37,2013-03-02 23:45:00,